Retour au catalogue

STARLINK-11496

ActifCommunicationsVLEO
NORAD 62267·PAYLOAD·🇺🇸 United States

Lancé Dec 8, 2024 depuis Cape Canaveral Space Force Station

Loading…

Prochains Passages (prochaines 24 heures)

TLE

FraisSource: CelesTrak SupGP

Époque: Sep 14, 2026, 22:43 UTC

1 62267C 24237A   26257.94701389 -.00061906  00000+0 -48067-3 0  2572
2 62267  43.0008 356.1675 0001766 270.8217  94.6506 15.70876431    13

Suivez STARLINK-11496 en temps réel avec AllMySat

Download on the App Store